Форумы » Общий Форум
| Тема |
Дата |
# |
Автор |
Последнее сообщение |
| Глюкоаут или поки читоры... -16 | 07/05/2009 | 14 | Desving | 07/05, 14:22, тема закрыта |
| Сайга, сет 123 | 07/05/2009 | 49 | Gicanka | 07/05, 14:18, от KEPKA |
| а хотели ли вы 12 | 07/05/2009 | 29 | самара малае | 07/05, 14:14, тема закрыта |
| аут. фулгос. авто. | 07/05/2009 | 11 | tompson | 07/05, 14:11, тема закрыта |
| Ппц =) Ну вот почему у нас такой народ ? -23 | 07/05/2009 | 20 | Kenta Nakamura | 07/05, 13:51, тема закрыта |
| вопрос к снайперам 123 -14 | 07/05/2009 | 58 | СлепойСнайпер | 07/05, 13:31, от Leo99 |
| миллиард | 07/05/2009 | 19 | Tor1n | 07/05, 13:16, от Ванкувер |
| Карма -18 | 07/05/2009 | 4 | Хитрый ФУЦ | 07/05, 12:38, тема закрыта |
| хм, нокия :o 12 | 07/05/2009 | 21 | Nitro2 | 07/05, 12:19, от npopok |
| Предложение... | 07/05/2009 | 20 | DiamondGuN | 07/05, 12:18, тема закрыта |
| игра)) -14 | 07/05/2009 | 16 | Real_Master | 07/05, 11:55, от TJ Black Fox |
| EUN -40 | 07/05/2009 | 14 | Ц_И_Н_К | 07/05, 10:44, тема закрыта |
| Куда качнуться??? -22 | 06/05/2009 | 20 | Newmen) | 07/05, 10:09, от trust_nobody |
| вынос 12 | 07/05/2009 | 33 | XHawkEyeX | 07/05, 09:20, от NIGGGA4LIFE |
| Помогите выбрать синидкат!! 12 | 07/05/2009 | 25 | Gagauz55 | 07/05, 09:12, тема закрыта |
| в 2006 году. планта стоила | 07/05/2009 | 15 | TANT3000 | 07/05, 09:07, тема закрыта |
| Небольшой опрос -29 | 07/05/2009 | 13 | ПазитивЪ | 07/05, 09:04, от kundei |
| На что вы опирались 123 | 07/05/2009 | 51 | Дотронься | 07/05, 09:00, от Медиапилот |
| собираю команды | 07/05/2009 | 12 | кабаниндзя | 07/05, 08:51, от кабаниндзя |
| Вечный вопрос о метке... | 07/05/2009 | 12 | RiOCL | 07/05, 05:46, тема закрыта |
| вот он властелин лотереи))) 12345» +91 | 03/05/2009 | 169 | GANGSTERDREAM | 07/05, 03:11, от Maid |
| Фэйр Плей... 12345 -44 | 04/05/2009 | 96 | valgalla | 07/05, 02:43, от СлепойСнайпер |
| Scorpion vs Kinetics CPW | 06/05/2009 | 10 | NOisjatko | 07/05, 02:40, от Prof-Hydralisk |
| Еун 123 -22 | 06/05/2009 | 43 | Сатана 666 | 07/05, 01:32, от mikola23 |
| Аут... поки... 12 | 07/05/2009 | 28 | (eJay) | 07/05, 01:28, от СлепойСнайпер |
| что лучше? 12 -16 | 06/05/2009 | 33 | Mistah F.A.B. | 07/05, 00:30, от _Dante Sparda_ |
| читер? -62 | 06/05/2009 | 18 | Irinka_) | 07/05, 00:23, от Злобный Русский |
| ого сколько бонусов) 12 -36 | 06/05/2009 | 30 | Irinka_) | 07/05, 00:13, от relaxed |
| Avto 12 | 06/05/2009 | 21 | BadBoy- | 06/05, 21:50, тема закрыта |
| кто тут? 123 -26 | 06/05/2009 | 60 | qRybik | 06/05, 21:38, от XHawkEyeX |
| А вы.. 123 +43 | 06/05/2009 | 42 | ДИ ДЖЭЙ ЯГО | 06/05, 20:49, от SuperVovaAS |
| Посоветуйте :) | 06/05/2009 | 10 | Lawuet | 06/05, 19:54, тема закрыта |
| Как лдумаете... 12 | 06/05/2009 | 23 | Супер бакс | 06/05, 19:50, тема закрыта |
| Дефляция 12 | 06/05/2009 | 21 | ХренБруле | 06/05, 19:45, от (Dima) |
| Прощай друг( 123 +44 | 06/05/2009 | 51 | Злой Дьявол | 06/05, 18:48, от NIGGGA4LIFE |
| Одиночные бои -10 | 06/05/2009 | 13 | z00m 791 | 06/05, 18:37, тема закрыта |
| дм или простой 15х15 | 06/05/2009 | 12 | KPoTeJIJIA | 06/05, 18:15, от KPoTeJIJIA |
| как думаете? 1234 +21 | 06/05/2009 | 69 | Пржевальский | 06/05, 18:09, тема закрыта |
| лайта BG | 06/05/2009 | 12 | qRybik | 06/05, 18:05, тема закрыта |
| а вы часто обращаетесь к адвокатам? 123 | 06/05/2009 | 45 | терка18 | 06/05, 17:16, от trust_nobody |
|